Fayetteville, NC

5:45 PM EST on February 12, 2016 (GMT -0500)
Fayetteville Regional-Grannis

Weather History for KFAY - October, 2011

Change the Weather History Date:

Saturday, October 1, 2011

  Actual Average Record
Temperature  
Mean Temperature 59 °F 69 °F  
Max Temperature 67 °F 79 °F 95 °F (1933)
Min Temperature 50 °F 58 °F 39 °F (1993)
Degree Days  
Heating Degree Days 6 1  
Month to date heating degree days 6 1  
Since 1 July heating degree days 16 10  
Cooling Degree Days 0 5  
Month to date cooling degree days 0 5  
Year to date cooling degree days 2343 1913  
Growing Degree Days 10 (Base 50)    
Moisture  
Dew Point 40 °F    
Average Humidity 51    
Maximum Humidity 72    
Minimum Humidity 29    
Precipitation  
Precipitation 0.00 in 0.19 in 2.50 in (1929)
Month to date precipitation 0.00 0.19  
Year to date precipitation 29.79 36.02  
Sea Level Pressure  
Sea Level Pressure 29.85 in    
Wind  
Wind Speed 10 mph (NW)    
Max Wind Speed 21 mph    
Max Gust Speed 28 mph    
Visibility 10 miles    
Events      
T = Trace of Precipitation, MM = Missing Value Source: NWS Daily Summary

Daily Weather History Graph

Daily Weather History Graph

Search for Another Location

Airport or City:

Trip Planner

Search our weather history database for the weather conditions in past years. The results will help you decide how hot, cold, wet, or windy it might be!

Date:

Astronomy

Oct. 01, 2011 Rise Set
Actual Time 7:10 AM EDT 6:59 PM EDT
Civil Twilight 6:44 AM EDT 7:25 PM EDT
Nautical Twilight 6:15 AM EDT 7:54 PM EDT
Astronomical Twilight 5:45 AM EDT 8:23 PM EDT
Moon 12:01 PM EDT (10/1) 10:08 PM EDT (10/1)
Length of Visible Light 12h 40m
Length of Day
11h 49m
Waxing Crescent, 24% of the Moon is Illuminated
Oct 1
Waxing Crescent
Oct 3
First Quarter
Oct 11
Full
Oct 19
Last Quarter
Oct 26
New

Hourly Weather History & Observations

Time (EDT) Temp. Dew Point Humidity Pressure Visibility Wind Dir Wind Speed Gust Speed Precip Events Conditions
12:53 AM 60.1 °F 51.1 °F 72% 29.76 in 10.0 mi WNW 5.8 mph - N/A   Clear
1:53 AM 59.0 °F 48.9 °F 69% 29.77 in 10.0 mi WNW 6.9 mph - N/A   Scattered Clouds
2:53 AM 59.0 °F 48.0 °F 67% 29.76 in 10.0 mi WNW 6.9 mph - N/A   Mostly Cloudy
3:53 AM 57.0 °F 46.9 °F 69% 29.76 in 10.0 mi WNW 8.1 mph - N/A   Clear
4:53 AM 55.9 °F 46.9 °F 72% 29.77 in 10.0 mi NW 8.1 mph - N/A   Clear
5:53 AM 55.9 °F 43.0 °F 62% 29.78 in 10.0 mi NW 10.4 mph - N/A   Clear
6:53 AM 54.0 °F 43.0 °F 66% 29.81 in 10.0 mi WNW 9.2 mph - N/A   Clear
7:53 AM 53.6 °F 41.0 °F 62% 29.84 in 10.0 mi NW 8.1 mph - N/A   Clear
8:53 AM 57.9 °F 39.9 °F 51% 29.85 in 10.0 mi NNW 9.2 mph - N/A   Clear
9:53 AM 59.0 °F 39.2 °F 48% 29.87 in 10.0 mi NNW 13.8 mph 18.4 mph N/A   Clear
10:53 AM 62.1 °F 39.0 °F 43% 29.86 in 10.0 mi NNW 12.7 mph 24.2 mph N/A   Clear
11:53 AM 63.0 °F 39.0 °F 41% 29.86 in 10.0 mi WNW 9.2 mph 24.2 mph N/A   Partly Cloudy
12:53 PM 64.9 °F 37.9 °F 37% 29.85 in 10.0 mi North 12.7 mph - N/A   Mostly Cloudy
1:53 PM 64.9 °F 36.0 °F 34% 29.84 in 10.0 mi NW 12.7 mph 19.6 mph N/A   Scattered Clouds
2:53 PM 64.9 °F 35.1 °F 33% 29.85 in 10.0 mi NW 13.8 mph 23.0 mph N/A   Mostly Cloudy
3:53 PM 66.0 °F 34.0 °F 30% 29.85 in 10.0 mi WNW 13.8 mph 21.9 mph N/A   Partly Cloudy
4:53 PM 64.9 °F 35.1 °F 33% 29.86 in 10.0 mi WNW 11.5 mph 21.9 mph N/A   Clear
5:53 PM 63.0 °F 34.0 °F 34% 29.88 in 10.0 mi NW 12.7 mph - N/A   Clear
6:53 PM 60.1 °F 36.0 °F 41% 29.89 in 10.0 mi NW 6.9 mph - N/A   Clear
7:53 PM 57.9 °F 36.0 °F 44% 29.92 in 10.0 mi WNW 8.1 mph - N/A   Clear
8:53 PM 55.4 °F 35.6 °F 47% 29.96 in 10.0 mi WNW 8.1 mph - N/A   Clear
9:53 PM 54.0 °F 36.0 °F 51% 29.95 in 10.0 mi WNW 6.9 mph - N/A   Clear
10:53 PM 53.1 °F 37.0 °F 55% 29.96 in 10.0 mi WNW 8.1 mph - N/A   Clear
11:53 PM 52.0 °F 37.0 °F 57% 29.96 in 10.0 mi West 8.1 mph - N/A   Clear